Location: Caltech
(34.1382°N, 118.1253°W)
Time: 20:29:54
(UTC-08:00)

Aureole 2 Rocket - Visible Passes

Search period start: 24 February 2017 00:00
Search period end: 06 March 2017 00:00
Orbit: 329 x 585 km, 73.9° (Epoch: 24 February)

Date Brightness Start Highest point End Pass type
(mag) Time Alt. Az. Time Alt. Az. Time Alt. Az.
03 Mar 4.5 18:51:05 10° NNE 18:51:17 11° NNE 18:51:17 11° NNE visible
04 Mar 4.7 19:51:43 10° NW 19:52:51 19° NW 19:52:51 19° NW visible
05 Mar 1.9 19:17:44 10° NNW 19:20:45 82° WSW 19:20:46 81° WSW visible
